This is the latest recevied weather packets stored in our database for station/object SP8EBC-11. If no packets are shown the sender has not sent any weather packets the latest 1 day(s).
| Time | Temp. | Humidity | Pressure | Rain* | Wind** | Luminosity | Snow |
|---|---|---|---|---|---|---|---|
| 1777982499 | 21.11° C | 59% | 992.6 hPa | - | 1.34 m/s, 330° | - | - |
| 1777982379 | 21.11° C | 59% | 992.6 hPa | - | 1.34 m/s, 9° | - | - |
| 1777982259 | 21.11° C | 60% | 992.5 hPa | - | 2.24 m/s, 29° | - | - |
| 1777982139 | 21.11° C | 59% | 992.4 hPa | - | 1.34 m/s, 16° | - | - |
| 1777982019 | 21.11° C | 60% | 992.4 hPa | - | 0.45 m/s, 16° | - | - |
| 1777981899 | 21.11° C | 60% | 992.6 hPa | - | 0.89 m/s, 25° | - | - |
| 1777981778 | 21.11° C | 60% | 992.8 hPa | - | 1.79 m/s, 7° | - | - |
| 1777981659 | 21.11° C | 60% | 992.9 hPa | - | 1.79 m/s, 4° | - | - |
| 1777981539 | 21.11° C | 60% | 992.8 hPa | - | 2.24 m/s, 16° | - | - |
| 1777981419 | 21.11° C | 60% | 992.7 hPa | - | 1.79 m/s, 11° | - | - |
| 1777981299 | 21.11° C | 60% | 992.7 hPa | - | 0.45 m/s, 246° | - | - |
| 1777981179 | 21.11° C | 60% | 992.7 hPa | - | 0.45 m/s, 244° | - | - |
| 1777981058 | 21.11° C | 60% | 992.7 hPa | - | 0.45 m/s, 334° | - | - |
| 1777980938 | 21.11° C | 60% | 992.8 hPa | - | 0 m/s | - | - |
| 1777980818 | 21.11° C | 60% | 992.9 hPa | - | 0.45 m/s, 51° | - | - |
| 1777980698 | 21.11° C | 60% | 992.9 hPa | - | 1.34 m/s, 49° | - | - |
| 1777980578 | 21.11° C | 60% | 993 hPa | - | 1.34 m/s, 77° | - | - |
| 1777980458 | 21.11° C | 60% | 993.1 hPa | - | 0.89 m/s, 113° | - | - |
| 1777980338 | 21.11° C | 60% | 993.1 hPa | - | 1.79 m/s, 119° | - | - |
| 1777980218 | 21.11° C | 60% | 993.1 hPa | - | 1.79 m/s, 112° | - | - |
| 1777980097 | 21.11° C | 60% | 993 hPa | - | 1.79 m/s, 90° | - | - |
| 1777979977 | 21.11° C | 60% | 992.8 hPa | - | 1.79 m/s, 102° | - | - |
| 1777979857 | 21.11° C | 61% | 992.6 hPa | - | 1.34 m/s, 100° | - | - |
| 1777979737 | 21.11° C | 61% | 992.6 hPa | - | 1.34 m/s, 70° | - | - |
| 1777979617 | 21.11° C | 61% | 992.7 hPa | - | 0.45 m/s, 17° | - | - |
* Rain since midnight (hover to see other rain measurements)
** Current wind speed in m/s (hover to see current wind gust speed)